This is the latest recevied weather packets stored in our database for station/object KD4EED. If no packets are shown the sender has not sent any weather packets the latest 10 day(s).
| Time | Temp. | Humidity | Pressure | Rain* | Wind** | Luminosity | Snow |
|---|---|---|---|---|---|---|---|
| 1788044510 | 32.78° C | 48% | 1007.7 hPa | - | - | 392 W/m² | - |
| 1788044210 | 33.33° C | 47% | 1007.6 hPa | - | - | 400 W/m² | - |
| 1788043905 | 33.33° C | 47% | 1007.8 hPa | - | - | 404 W/m² | - |
| 1788043601 | 33.33° C | 47% | 1007.7 hPa | - | - | 410 W/m² | - |
| 1788043301 | 33.89° C | 47% | 1007.8 hPa | - | - | 415 W/m² | - |
| 1788042996 | 33.89° C | 47% | 1007.9 hPa | - | - | 423 W/m² | - |
| 1788042691 | 33.89° C | 48% | 1008 hPa | - | - | 439 W/m² | - |
| 1788042390 | 34.44° C | 47% | 1008.2 hPa | - | - | 461 W/m² | - |
| 1788042085 | 34.44° C | 45% | 1008.1 hPa | - | - | 472 W/m² | - |
| 1788041780 | 35° C | 41% | 1008.3 hPa | - | - | 479 W/m² | - |
| 1788041475 | 35° C | 42% | 1008.1 hPa | - | - | 488 W/m² | - |
| 1788041170 | 35° C | 40% | 1008.3 hPa | - | - | 503 W/m² | - |
| 1788040870 | 35° C | 41% | 1008.3 hPa | - | - | 519 W/m² | - |
| 1788040568 | 35° C | 40% | 1008.4 hPa | - | - | 535 W/m² | - |
| 1788040264 | 35° C | 42% | 1008.3 hPa | - | - | 514 W/m² | - |
| 1788039963 | 35° C | 44% | 1008.6 hPa | - | - | 488 W/m² | - |
| 1788039658 | 35° C | 43% | 1008.4 hPa | - | - | 588 W/m² | - |
| 1788039354 | 34.44° C | 44% | 1008.6 hPa | - | - | 587 W/m² | - |
| 1788039049 | 34.44° C | 43% | 1008.6 hPa | - | - | 589 W/m² | - |
| 1788038744 | 33.89° C | 45% | 1008.8 hPa | - | - | 600 W/m² | - |
| 1788038439 | 33.33° C | 47% | 1008.7 hPa | - | - | 609 W/m² | - |
| 1788038139 | 33.33° C | 49% | 1008.7 hPa | - | - | 630 W/m² | - |
| 1788037838 | 33.33° C | 48% | 1008.9 hPa | - | - | 654 W/m² | - |
| 1788037533 | 32.78° C | 48% | 1009 hPa | - | - | 673 W/m² | - |
| 1788037229 | 32.22° C | 50% | 1009.1 hPa | - | - | 729 W/m² | - |
* Rain since midnight (hover to see other rain measurements)
** Current wind speed in m/s (hover to see current wind gust speed)